• în România
  • Lista ţărilor
  • Pe 7 zile
  • Temperatura apei
  • Hartă satelitară
  • Meteo pe hartă
  • Widget-uri
  • user-avatar
    Intrare

    Meteo pe oră la Malanje

    Astăzi, 20 Noiembrie, Luni

    Timp Temperatura Precipitaţii Vânt Presiune Umiditate
    00:00 +18°C° 0,3 mm 0 m/s 665 mmHg 92%
    01:00 +18°C° 0 mm 0 m/s 665 mmHg 92%
    02:00 +18°C° 0 mm 0 m/s 665 mmHg 93%
    03:00 +18°C° 0 mm 0 m/s 665 mmHg 94%
    04:00 +17°C° 0 mm 0 m/s 665 mmHg 95%
    05:00 +18°C° 0 mm 0 m/s 665 mmHg 94%
    06:00 +18°C° 0 mm 0 m/s 665 mmHg 93%
    07:00 +19°C° 0 mm 0 m/s 666 mmHg 92%
    08:00 +21°C° 0,1 mm 0 m/s 666 mmHg 86%
    09:00 +23°C° 0,1 mm 0 m/s 667 mmHg 80%
    10:00 +24°C° 0,1 mm 0 m/s 667 mmHg 73%
    11:00 +26°C° 0,2 mm 0 m/s 667 mmHg 69%
    12:00 +27°C° 0,2 mm 0 m/s 666 mmHg 65%
    13:00 +30°C° 0,2 mm 1 m/s 666 mmHg 61%
    14:00 +29°C° 1,2 mm 1 m/s 665 mmHg 68%
    15:00 +27°C° 1,2 mm 1 m/s 665 mmHg 74%
    16:00 +26°C° 1,2 mm 1 m/s 664 mmHg 81%
    17:00 +25°C° 0,8 mm 1 m/s 664 mmHg 84%
    18:00 +23°C° 0,8 mm 1 m/s 664 mmHg 87%
    19:00 +22°C° 0,8 mm 1 m/s 664 mmHg 90%
    20:00 +19°C° 0,4 mm 0 m/s 665 mmHg 90%
    21:00 +19°C° 0,4 mm 0 m/s 665 mmHg 89%
    22:00 +19°C° 0,4 mm 0 m/s 665 mmHg 89%
    23:00 +19°C° 0,3 mm 0 m/s 665 mmHg 90%

    Mâine, 21 Noiembrie, Marţi

    Timp Temperatura Precipitaţii Vânt Presiune Umiditate
    00:00 +18°C° 0,3 mm 0 m/s 665 mmHg 91%
    01:00 +18°C° 0,3 mm 0 m/s 665 mmHg 92%
    02:00 +18°C° 0,2 mm 0 m/s 665 mmHg 93%
    03:00 +18°C° 0,2 mm 0 m/s 664 mmHg 94%
    04:00 +18°C° 0,2 mm 0 m/s 664 mmHg 95%
    05:00 +18°C° 0,1 mm 0 m/s 665 mmHg 95%
    06:00 +18°C° 0,1 mm 0 m/s 665 mmHg 95%
    07:00 +19°C° 0,1 mm 0 m/s 666 mmHg 95%
    08:00 +20°C° 0,9 mm 0 m/s 666 mmHg 92%
    09:00 +21°C° 0,9 mm 0 m/s 666 mmHg 89%
    10:00 +22°C° 0,9 mm 0 m/s 666 mmHg 87%
    11:00 +23°C° 0,6 mm 0 m/s 666 mmHg 82%
    12:00 +24°C° 0,6 mm 0 m/s 665 mmHg 77%
    13:00 +24°C° 0,6 mm 0 m/s 665 mmHg 72%
    14:00 +26°C° 0,1 mm 1 m/s 664 mmHg 74%
    15:00 +26°C° 0,1 mm 1 m/s 664 mmHg 75%
    16:00 +25°C° 0,1 mm 1 m/s 663 mmHg 77%
    17:00 +24°C° 0,6 mm 1 m/s 663 mmHg 81%
    18:00 +23°C° 0,6 mm 1 m/s 664 mmHg 85%
    19:00 +21°C° 0,6 mm 1 m/s 664 mmHg 89%
    20:00 +21°C° 0,5 mm 1 m/s 664 mmHg 90%
    21:00 +20°C° 0,5 mm 1 m/s 664 mmHg 91%
    22:00 +20°C° 0,5 mm 1 m/s 665 mmHg 93%
    23:00 +20°C° 0,2 mm 1 m/s 665 mmHg 93%

    Poimâine, 22 Noiembrie, Miercuri

    Timp Temperatura Precipitaţii Vânt Presiune Umiditate
    00:00 +19°C° 0,2 mm 1 m/s 664 mmHg 94%
    01:00 +19°C° 0,2 mm 1 m/s 664 mmHg 95%
    02:00 +19°C° 0 mm 1 m/s 664 mmHg 95%
    03:00 +19°C° 0 mm 1 m/s 663 mmHg 96%
    04:00 +18°C° 0 mm 1 m/s 663 mmHg 96%
    05:00 +17°C° 0 mm 0 m/s 664 mmHg 94%
    06:00 +18°C° 0 mm 0 m/s 665 mmHg 93%
    07:00 +19°C° 0 mm 0 m/s 665 mmHg 91%
    08:00 +21°C° 0 mm 0 m/s 666 mmHg 84%
    09:00 +23°C° 0 mm 0 m/s 666 mmHg 77%
    10:00 +25°C° 0 mm 0 m/s 666 mmHg 70%
    11:00 +26°C° 0,3 mm 0 m/s 666 mmHg 66%
    12:00 +29°C° 0,3 mm 1 m/s 665 mmHg 62%
    13:00 +30°C° 0,3 mm 1 m/s 665 mmHg 58%
    14:00 +29°C° 1,2 mm 1 m/s 664 mmHg 66%
    15:00 +28°C° 1,2 mm 1 m/s 664 mmHg 74%
    16:00 +26°C° 1,2 mm 2 m/s 663 mmHg 82%
    17:00 +24°C° 1,4 mm 2 m/s 663 mmHg 85%
    18:00 +23°C° 1,4 mm 2 m/s 664 mmHg 89%
    19:00 +20°C° 1,4 mm 2 m/s 664 mmHg 92%
    20:00 +20°C° 1 mm 2 m/s 664 mmHg 94%
    21:00 +20°C° 1 mm 2 m/s 665 mmHg 95%
    22:00 +19°C° 1 mm 2 m/s 665 mmHg 97%
    23:00 +19°C° 1,3 mm 2 m/s 665 mmHg 97%

    23 Noiembrie, Joi

    Timp Temperatura Precipitaţii Vânt Presiune Umiditate
    00:00 +19°C° 1,3 mm 2 m/s 665 mmHg 97%
    01:00 +19°C° 1,3 mm 2 m/s 664 mmHg 97%
    02:00 +19°C° 1,2 mm 2 m/s 664 mmHg 97%
    03:00 +19°C° 1,2 mm 2 m/s 664 mmHg 97%
    04:00 +20°C° 1,2 mm 1 m/s 664 mmHg 97%
    05:00 +20°C° 0,6 mm 1 m/s 664 mmHg 97%
    06:00 +20°C° 0,6 mm 1 m/s 664 mmHg 97%
    07:00 +20°C° 0,6 mm 1 m/s 665 mmHg 97%
    08:00 +21°C° 0,8 mm 1 m/s 665 mmHg 95%
    09:00 +22°C° 0,8 mm 1 m/s 665 mmHg 94%
    10:00 +22°C° 0,8 mm 1 m/s 665 mmHg 92%
    11:00 +23°C° 0,6 mm 1 m/s 665 mmHg 89%
    12:00 +24°C° 0,6 mm 1 m/s 664 mmHg 86%
    13:00 +25°C° 0,6 mm 1 m/s 664 mmHg 83%
    14:00 +25°C° 1,3 mm 1 m/s 664 mmHg 83%
    15:00 +25°C° 1,3 mm 1 m/s 663 mmHg 84%
    16:00 +23°C° 1,3 mm 0 m/s 663 mmHg 84%
    17:00 +21°C° 0,8 mm 0 m/s 663 mmHg 87%
    18:00 +20°C° 0,8 mm 0 m/s 664 mmHg 90%
    19:00 +19°C° 0,8 mm 0 m/s 664 mmHg 93%
    20:00 +18°C° 0,1 mm 0 m/s 664 mmHg 93%
    21:00 +18°C° 0,1 mm 0 m/s 664 mmHg 94%
    22:00 +20°C° 0,1 mm 1 m/s 665 mmHg 95%
    23:00 +20°C° 0,1 mm 1 m/s 665 mmHg 95%

    24 Noiembrie, Vineri

    Timp Temperatura Precipitaţii Vânt Presiune Umiditate
    00:00 +19°C° 0,1 mm 1 m/s 664 mmHg 96%
    01:00 +19°C° 0,1 mm 1 m/s 664 mmHg 96%
    02:00 +19°C° 0,1 mm 1 m/s 664 mmHg 97%
    03:00 +17°C° 0,1 mm 0 m/s 664 mmHg 97%
    04:00 +16°C° 0,1 mm 0 m/s 663 mmHg 97%
    05:00 +17°C° 0 mm 0 m/s 664 mmHg 96%
    06:00 +18°C° 0 mm 0 m/s 665 mmHg 95%
    07:00 +18°C° 0 mm 0 m/s 665 mmHg 94%
    08:00 +22°C° 0,3 mm 1 m/s 665 mmHg 90%
    09:00 +23°C° 0,3 mm 1 m/s 666 mmHg 85%
    10:00 +24°C° 0,3 mm 1 m/s 666 mmHg 80%
    11:00 +25°C° 0,5 mm 1 m/s 665 mmHg 77%
    12:00 +26°C° 0,5 mm 2 m/s 665 mmHg 73%
    13:00 +27°C° 0,5 mm 2 m/s 664 mmHg 69%
    14:00 +26°C° 0,6 mm 2 m/s 664 mmHg 73%
    15:00 +26°C° 0,6 mm 2 m/s 664 mmHg 77%
    16:00 +25°C° 0,6 mm 2 m/s 663 mmHg 81%
    17:00 +24°C° 0,8 mm 2 m/s 664 mmHg 86%
    18:00 +22°C° 0,8 mm 1 m/s 664 mmHg 90%
    19:00 +21°C° 0,8 mm 1 m/s 664 mmHg 95%
    20:00 +20°C° 0,3 mm 1 m/s 664 mmHg 95%
    21:00 +20°C° 0,3 mm 1 m/s 665 mmHg 96%
    22:00 +20°C° 0,3 mm 1 m/s 665 mmHg 96%
    23:00 +20°C° 0,2 mm 1 m/s 665 mmHg 97%

    25 Noiembrie, Sâmbătă

    Timp Temperatura Precipitaţii Vânt Presiune Umiditate
    00:00 +19°C° 0,2 mm 1 m/s 664 mmHg 97%
    01:00 +19°C° 0,2 mm 1 m/s 664 mmHg 98%
    02:00 +19°C° 0,1 mm 1 m/s 664 mmHg 98%
    03:00 +19°C° 0,1 mm 1 m/s 664 mmHg 98%
    04:00 +19°C° 0,1 mm 1 m/s 664 mmHg 98%
    05:00 +19°C° 0,1 mm 1 m/s 664 mmHg 97%
    06:00 +20°C° 0,1 mm 1 m/s 665 mmHg 97%
    07:00 +20°C° 0,1 mm 1 m/s 665 mmHg 96%
    08:00 +22°C° 0,2 mm 1 m/s 666 mmHg 89%
    09:00 +23°C° 0,2 mm 2 m/s 666 mmHg 83%
    10:00 +24°C° 0,2 mm 2 m/s 666 mmHg 76%
    11:00 +25°C° 0,4 mm 2 m/s 665 mmHg 74%
    12:00 +26°C° 0,4 mm 3 m/s 665 mmHg 71%
    13:00 +27°C° 0,4 mm 3 m/s 664 mmHg 69%
    14:00 +26°C° 0,6 mm 3 m/s 664 mmHg 73%
    15:00 +26°C° 0,6 mm 3 m/s 663 mmHg 77%
    16:00 +25°C° 0,6 mm 3 m/s 663 mmHg 81%
    17:00 +24°C° 0,5 mm 2 m/s 663 mmHg 86%
    18:00 +21°C° 0,5 mm 2 m/s 664 mmHg 91%
    19:00 +20°C° 0,5 mm 2 m/s 664 mmHg 95%
    20:00 +19°C° 0,2 mm 2 m/s 664 mmHg 96%
    21:00 +19°C° 0,2 mm 2 m/s 665 mmHg 97%
    22:00 +19°C° 0,2 mm 2 m/s 665 mmHg 98%
    23:00 +19°C° 0,4 mm 2 m/s 665 mmHg 98%
    Arată mai mult